Погода Софийский Прииск

Погода Софийский Прииск : погода сейчас, прогноз погоды и архив. Всё, что Вы хотите узнать о погоде Софийский Прииск!

Поиск расширенной информации на нашем сайте:

Другие новости

Новости СМИ2

Главная страница сайта

Новости сайта

03.07.2017

Напоминаем, что на нашем специализированном сайте Метеоцентр.Азия вы можете получить высокодетализированные автоматические прогнозы погоды по пунктам России, СНГ и мира в авиационном формате (включающие направление и скорость ветра, видимость, явления погоды, количество и форму облачности, нижнюю и верхнюю границу облачности).


Погода Софийский Прииск - сегодня

Время (UTC), дата Ветер
(°,м/с) 
Видим.   Явления Облачность Т
(°С)
Тd
(°С)
f(%) Тe
(°С)
Pmin
(гПа)
dP
(гПа)
Po
(мм)
O2
(г/м3)
Тmin Tmax R s Состояние
почвы
00 18.06.18 250 (З) 4000 м  слаб. ливневой дождь  10/10 600 м кучево-дожд. 
[Cb cap]
+11.4 +9.5 88 +13  999.5  0.5             
03 18.06.18 310 (СЗ) 4000 м  слаб. ливневой дождь  10/10 600 м кучево-дожд. 
[Cb cap]
+11.6 +9.8 89 +13  1000.1  0.6             
06 18.06.18 160 (Ю) 10 км  в посл. час ливневой дождь  10/10 600 м кучево-дожд. 
[Cb cap]
+12.3 +9.8 85 +13  1000.4  0.5             
12 18.06.18 080 (В) 20000 м  {ливн. осадки}  10/8 1000 м кучево-дожд., средняя 
[Cb cap|As op]
+9.7 +7.6 87 +9  1001.8  0.6             
15 18.06.18 090 (В) 20000 м  в посл. час ливневой дождь  10/10 600 м кучево-дожд. 
[Cb cap]
+7.7 +6.1 90 +7  1001.9  -0.7             
18 18.06.18 090 (В) 20000 м  {ливн. осадки}  10/8 1000 м кучево-дожд., средняя 
[Cb cap|As op]
+7.3 +4.8 84 +6  999.8  -2.1             
21 18.06.18 100 (В) 10 км  слаб. ливневой дождь  10/10 600 м кучево-дожд. 
[Cb cap]
+6 +4.4 89 +5  998.9  -1.3    +6      мокрая 
00 19.06.18 080 (В) 20000 м  слаб. ливневой дождь  10/10 600 м кучево-дожд. 
[Cb cap]
+7.7 +5.5 86 +6  995.3  -2.5             
03 19.06.18 110 (В) 20000 м  в посл. час ливневой дождь  10/10 600 м кучево-дожд. 
[Cb cap]
+7.9 +5.7 86 +7  995.6  0.3             
06 19.06.18 090 (В) 20000 м  {ливн. осадки}  10/10 600 м кучево-дожд. 
[Cb cap]
+10 +5.6 74 +10  995.8  0.9             
12 19.06.18 080 (В) 20000 м  в посл. час ливневой дождь  10/10 600 м кучево-дожд. 
[Cb cap]
+7.3 +5.6 89 +7  998.7  0.9             
15 19.06.18 080 (В) 20000 м    10/10 1000 м кучево-дожд. 
[Cb cap]
+7.6 +5.5 87 +8  999.2  0.5             
18 19.06.18 070 (В) 10 км  слаб. дождь  10/10 600 м 
[Sc]
+6.7 +5.7 93 +7  1000  0.4             
21 19.06.18 070 (В) 20000 м  {дождь}  9/9 600 м кучево-дожд. 
[Cb cap]
+7.9 +6.5 91 +8  999.4    +6.6      мокрая 
00 20.06.18 280 (З) 10 км  в посл. час морось{ливн. осадки, дождь}  10/10 600 м кучево-дожд. 
[Cb cap]
+9.5 +8.3 92 +11  999.4  0.5             
03 20.06.18 290 (З) 10 км  слаб. морось{ливн. осадки}  10/10 600 м кучево-дожд. 
[Cb cap]
+10.9 +9.5 91 +11  999.1  0.2             
06 20.06.18 270 (З) 10 км  слаб. дождь{ливн. осадки}  9/9 600 м 
[Sc]
+12.4 +9.6 83 +14  998.3  -0.2             
12 20.06.18 100 (В) 20000 м  {ливн. осадки}  9/9 600 м кучево-дожд. 
[Cb cap]
+9.1 +6.7 85 +9  1000.4  1.1             
15 20.06.18 060 (СВ) 20000 м    10/5 1000 м верхняя 
[Sc|Ci fib]
+5.8 +4.8 93 +7  1001.6  -0.2             
18 20.06.18 тихо ()   20000 м    9/3 1000 м средняя, верхняя 
[Sc|Ac lent|Ci fib]
+5.9 +4.7 92 +6  1000.9  -0.7             
00 21.06.18 050 (СВ) 20000 м    10/3 1000 м кучево-дожд., средняя, верхняя 
[Cb cap|As op|Ci fib]
+13.6 +6.5 62 +15  997  -0.9             
03 21.06.18 100 (В) 20000 м  слаб. ливневой дождь  9/9 1000 м кучево-дожд. 
[Cb cap]
+13.8 +10.8 82 +15  995.6  -1.1             
06 21.06.18 110 (В) 20000 м  слаб. ливневой дождь  10/9 1000 м кучево-дожд., верхняя 
[Cb cap|Ci fib]
+13.3 +10.8 85 +15  995.3  -0.3             
12 21.06.18 080 (В) 20000 м  {ливн. осадки}  10/10 1000 м кучево-дожд. 
[Cb cap]
+10 +7.9 87 +11  997.4  0.9             
15 21.06.18 100 (В) 20000 м    10/10 1000 м кучево-дожд. 
[Cb cap]
+8.5 +6.8 89 +10  998             
Время (UTC), дата Ветер
(°,м/с) 
Видим.   Явления Облачность Т
(°С)
Тd
(°С)
f(%) Тe
(°С)
Pmin
(гПа)
dP
(гПа)
Po
(мм)
O2
(г/м3)
Тmin Tmax R s Состояние
почвы

Для получения пояснительной информации подведите курсор к названию столбца.

ПОГОДА Софийский Прииск - архив

Всё, что Вы хотите узнать о погоде Софийский Прииск - удобно и подробно!

Выберите нужную дату (начиная с 1 января 2015* года) и нажмите кнопку "Найти".
Будут отображены архивные сводки погоды по пункту Софийский Прииск, начиная с указанной даты.


Отображать данные в формате CSV (для использования в таблицах Excel)


Внимание! Наш архив погоды предназначен исключительно для личного некоммерческого использования в познавательных целях. Если Вам необходимы официальные справки о состоянии погоды (для производственных, юридических, коммерческих и т.п. целей), обращайтесь в органы Росгидромета.

*Примечание: данная дата относится к архиву по метеостанциям СССР (Россия, СНГ, Балтия).
Архив по метеостанциям Зарубежной Европы и Азии (кроме Китая) хранится 10 дней, по другим регионам земного шара (Китай, Африка, Америка, Австралия, Океания) - 1 день.

Софийский Прииск - район местоположения метеостанции


Название, широта, долгота, высота метеостанции:
Софийский Прииск 52.3°ш. 134°д. 902 м над ур. моря [Российская Федерация]

Дополнительная информация

В oтличие oт бoльшинства пoгoдных сайтoв мы публикуем пoдрoбную метеoинфoрмацию в детальнoм прoфессиoнальнoм фoрмате.

Характеристики температуры и влажнoсти вoздуха измеряются на высoте 2 м в тени вдали oт зданий и деревьев.
Скoрoсть ветра измеряется на высoте 10 м (на урoвне рoста челoвека скoрoсть ветра ниже в 1.5-2 раза). Если метеoстанция нахoдится в гoрoде или в лесу, тo скoрoсть ветра занижена на 2-4 м/с пo сравнению с oткрытым местoм. Скoрoсть ветра над акватoриями крупных рек и oзёр, а также на вершинах хoлмoв на 2-5 м/с выше, чем в oбычных услoвиях.
Атмoсфернoе давление в разных тoчках местнoсти мoжет значительнo oтличаться oт давления на метеoстанции, в зависимoсти oт услoвий рельефа (при пoдъёме на 10 м давление пoнижается примернo на 1 мм рт.ст.).